Regional Weather Roundup
Issued by NWS

Home | Current Version | Previous Version | Graphics & Text | Print | Product List | Glossary Off
Versions: 1 2 3 4 5 6 7 8 9 10 11 12 13 14 15 16 17 18 19 20 21 22 23 24 25 26 27 28 29 30 31 32 33 34 35 36 37 38 39 40 41 42 43 44 45 46 47 48 49 50

000
ASUS43 KTOP 211659
RWRKS

WEATHER ROUNDUP FOR KANSAS
NATIONAL WEATHER SERVICE GOODLAND KS
1200 PM CDT TUE OCT 21 2014

NOTE:  "FAIR" INDICATES FEW OR NO CLOUDS BELOW 12,000 FEET WITH NO
SIGNIFICANT WEATHER AND/OR OBSTRUCTIONS TO VISIBILITY.

KSZ001>006-013>018-027>032-041>047-211800-
NORTHWEST KANSAS

CITY           SKY/WX    TMP DP  RH WIND       PRES   REMARKS
GOODLAND       MOSUNNY   61  55  81 S15       30.06F
HAYS           SUNNY     70  57  64 SE15      30.08F
HILL CITY      SUNNY     70  58  65 S13G22    30.07
RUSSELL        MOSUNNY   70  58  65 SE10      30.07F
$$

KSZ061>065-074>080-084>089-211800-
SOUTHWEST KANSAS

CITY           SKY/WX    TMP DP  RH WIND       PRES   REMARKS
DODGE CITY     PTSUNNY   62  59  90 S5        30.09S FOG
ELKHART          N/A     73  50  44 SW15        N/A
GARDEN CITY    PTSUNNY   59  56  89 S7        30.08F FOG
GREAT BEND     PTSUNNY   70  59  68 SE13      30.08F
LIBERAL        SUNNY     70  57  64 S6        30.11S
$$

KSZ066>073-081>083-090>101-211800-
SOUTHEAST KANSAS

CITY           SKY/WX    TMP DP  RH WIND       PRES   REMARKS
CHANUTE        SUNNY     71  57  61 SE7       30.13S
COFFEYVILLE    SUNNY     71  61  70 S6        30.12F
HUTCHINSON     MOSUNNY   75  55  49 SE14      30.09F
NEWTON         SUNNY     72  54  53 SE13      30.13F
PARSONS        SUNNY     71  61  70 VRB6      30.14F
WICHITA INTL   MOSUNNY   75  53  46 SE15      30.10F
WICHITA JABRA  SUNNY     73  53  49 S13       30.11S
WINFIELD       SUNNY     73  57  57 SE14      30.11F
$$

KSZ007>012-019>026-033>040-048>060-102>105-211800-
NORTHEAST KANSAS

CITY           SKY/WX    TMP DP  RH WIND       PRES   REMARKS
CONCORDIA      SUNNY     72  55  55 SE8       30.10F
EMPORIA        SUNNY     71  54  54 S7        30.13S
LAWRENCE       SUNNY     68  48  48 CALM      30.13F
MANHATTAN      SUNNY     71  54  54 CALM      30.11F
OLATHE IND     SUNNY     70  50  49 CALM      30.14S
OLATHE EXE     SUNNY     70  47  43 CALM      30.13S
SALINA         SUNNY     74  57  55 SE8       30.10F
TOPEKA BILLARD SUNNY     70  50  49 E3        30.13F
TOPEKA FORBES  SUNNY     71  45  39 E5        30.12F
$$



USA.gov is the U.S. government's official web portal to all federal, state and local government web resources and services.